[[{"header":{"parameterUnit":"m.s-1","parameterCategory":1,"la1":30.2991,"la2":30.254,"lo1":-89.0895,"lo2":-89.0444,"dy":0.0017,"dx":0.0017,"nx":28,"ny":28,"refTime":"2023-08-07T09:00:00:Z","depth":0,"parameterNumber":2,"parameterNumberName":"U-component_of_WINDS"},"data":[0,0,0,0,0,0,0,0,0,0,0,0,0,0,0,0,0,0,0,0,0,0,0,0,0,0,0,0,0,0,0,0,0,0,0,0,0,0,0,0,0,0,0,0,0,0,0,0,0,0,0,0,0,0,0,0,0,0,4.7021,4.7023,0,4.7163,4.7165,4.7166,4.712,4.7117,4.7114,4.7111,4.7257,4.7264,4.7271,0,0,0,0,0,0,0,0,0,0,0,0,0,4.6709,4.6715,4.7021,4.7023,4.7024,4.7163,4.7165,4.7167,4.7121,4.7117,4.7113,4.711,4.7255,4.7263,4.7271,0,0,0,0,0,0,0,0,0,0,0,0,0,4.6847,4.6717,4.7021,4.7018,4.7019,4.7162,4.7165,4.7167,4.7121,4.7117,4.7112,4.7108,4.7253,4.7262,4.7272,4.7427,0,0,4.7303,4.7308,0,0,0,0,0,0,0,0,4.6839,4.6859,4.7017,4.7019,4.702,4.7119,4.7108,4.7254,4.7123,4.7083,4.7111,4.7106,4.7215,4.7228,4.7265,4.7433,4.744,4.7304,4.731,4.7315,4.7317,0,0,0,0,0,0,0,4.683,4.6852,4.7077,4.7019,4.7021,4.701,4.7024,4.7136,4.7173,4.7086,4.7083,4.71,4.7215,4.7255,4.7268,4.7442,4.7304,4.7313,4.7319,4.7323,4.7741,4.7746,0,0,0,0,0,0,4.6819,4.6845,4.7073,4.7081,4.6917,4.7019,4.7035,4.7092,4.7172,4.7179,4.7104,4.7097,4.724,4.7256,4.7273,4.7456,4.7315,4.7324,4.733,4.7736,4.7742,4.7747,0,0,0,0,0,0,4.6813,4.684,4.7067,4.6962,4.699,4.7029,4.7093,4.7097,4.7137,4.7185,4.7192,4.7138,4.7237,4.7259,4.7388,4.746,4.7329,4.7338,4.773,4.7738,4.7745,4.7825,0,0,0,0,0,0,4.6804,4.6838,4.6897,4.6964,4.6996,4.718,4.7098,4.7103,4.7154,4.7147,4.7219,4.7226,4.7235,4.7373,4.7398,4.7472,4.7346,4.7724,4.7733,4.7742,4.7816,4.7835,4.785,0,0,0,0,0,4.6793,4.6915,4.69,4.6928,4.7071,4.7184,4.7203,4.721,4.7161,4.722,4.7251,4.7224,4.7449,4.7387,4.7414,4.7493,4.7719,4.7731,4.7742,4.7809,4.7831,4.785,0,0,0,0,0,0,4.6857,4.6924,4.6908,4.7056,4.7115,4.7176,4.7252,4.7234,4.7308,4.7299,4.7305,4.7322,4.7454,4.7487,4.7416,4.7644,4.7577,4.7594,4.7618,4.764,4.7656,4.7645,4.7354,0,0,0,0,0,4.6888,4.6975,4.7029,4.7153,4.7184,4.7213,4.7262,4.7263,4.7324,4.7349,4.7389,4.745,4.7533,4.7589,4.7669,4.7821,4.7835,4.7889,4.7906,4.7919,4.7934,4.8014,4.8037,4.7785,4.7784,4.7784,0,0,4.6953,4.7001,4.7055,4.7167,4.7213,4.7301,4.7234,4.7331,4.7397,4.7364,4.7487,4.7519,4.7587,4.7727,4.7792,4.7759,4.8007,4.7934,4.7944,4.7951,4.8028,4.8052,4.8073,4.7792,4.7791,4.779,0,0,4.7117,4.7163,4.727,4.7317,4.7386,4.7404,4.743,4.7495,4.7514,4.7638,4.7614,4.7693,4.7838,4.7886,4.793,4.811,4.8087,4.8136,4.8225,4.8303,4.8322,4.834,4.8402,4.8424,4.8151,4.8151,4.8151,0,4.7189,4.7322,4.7328,4.7426,4.7475,4.7449,4.7557,4.7602,4.7695,4.7729,4.7691,4.7871,4.7915,4.8065,4.8109,4.8146,4.8174,4.8127,4.8319,4.8337,4.8353,4.8412,4.8436,4.8156,4.8156,4.8155,4.8155,0,4.7406,4.7498,4.7577,4.7665,4.7723,4.7827,4.7847,4.7905,4.7901,4.7923,4.8048,4.81,4.8189,4.8225,4.8222,4.8375,4.8351,4.8317,4.8248,4.8383,4.8438,4.8461,4.8164,4.8162,4.8161,4.8159,0,0,4.7614,4.7703,4.7731,4.777,4.7844,4.7915,4.8016,4.8102,4.8151,4.8216,4.8299,4.8422,4.8389,4.8439,4.8441,4.851,4.8646,4.8467,4.8468,4.8496,4.8814,4.8837,4.8863,4.8632,4.8637,4.864,4.8807,0,4.7781,4.7958,4.7965,4.8127,4.821,4.8186,4.8274,4.8328,4.8352,4.8426,4.8452,4.8537,4.8489,4.8519,4.8586,4.8615,4.871,4.8604,4.8708,4.8712,4.8689,4.8893,4.8919,4.9074,4.8829,4.8833,4.8835,0,4.8,4.807,4.8239,4.8299,4.8334,4.8413,4.8491,4.8563,4.8624,4.8636,4.869,4.8682,4.8784,4.8714,4.8854,4.8781,4.8825,4.8846,4.8852,4.886,4.878,4.8904,4.9124,4.9146,4.887,4.8867,4.8865,0,4.8131,4.8268,4.8385,4.842,4.8493,4.8548,4.8582,4.8638,4.8688,4.8757,4.8789,4.887,4.8913,4.8975,4.8988,4.8936,4.9128,4.9059,4.9139,4.9138,4.9178,4.9175,4.9405,4.9211,4.9211,4.921,4.921,0,4.8316,4.842,4.8445,4.8517,4.8632,4.8639,4.8753,4.8782,4.8832,4.8909,4.8894,4.8966,4.898,4.9056,4.9067,4.9179,4.92,4.9211,4.9212,4.9211,4.9209,4.9238,4.9226,4.9216,4.9215,4.9214,4.9213,0,4.8481,4.8502,4.8628,4.8687,4.8704,4.8786,4.8835,4.8904,4.8925,4.9022,4.9046,4.9079,4.9166,4.9186,4.9291,4.9298,4.9431,4.9423,4.941,4.9408,4.9486,4.9477,4.974,4.9774,4.956,4.9562,4.9564,0,4.8596,4.8675,4.8741,4.8791,4.8826,4.8908,4.8958,4.8969,4.9022,4.9096,4.9156,4.9241,4.931,4.9451,4.9484,4.9563,4.9556,4.9643,4.9567,4.9563,4.9553,4.9547,4.9554,4.9656,4.9658,4.966,4.9662,0,4.8797,4.8803,4.8877,4.8954,4.9015,4.9077,4.9135,4.9177,4.9195,4.9256,4.9344,4.9398,4.9503,4.9588,4.9667,4.9701,4.9684,4.9685,4.9707,4.9705,4.9693,4.9698,4.9446,4.9679,4.9677,4.9676,4.9675,4.9674,4.8939,4.9006,4.9063,4.9145,4.919,4.9244,4.9311,4.9339,4.9413,4.9499,4.9501,4.9597,4.9654,4.9759,4.9797,4.9872,4.9845,4.9878,4.9886,4.9893,4.9898,4.9683,4.9887,4.9886,4.9886,4.9886,4.9885,0,4.9136,4.9171,4.9247,4.9328,4.9392,4.9371,4.9434,4.9489,4.9573,4.9628,4.9695,4.9796,4.9877,4.9916,4.9997,5.0049,5.0043,5.0069,5.0064,5.0071,4.9919,4.9891,5.0072,5.0072,5.0072,5.0072,5.0072,5.0072,4.9247,4.9359,4.9372,4.9505,4.954,4.9633,4.967,4.972,4.9763,4.9876,4.9943,4.9968,5.0016,5.0099,5.0172,5.0181,5.021,5.024,5.0245,5.0102,5.0083,5.0064,5.0037,5.0247,5.0247,5.0391,5.0392,5.0393]},{"header":{"parameterUnit":"m.s-1","parameterCategory":1,"la1":30.2991,"la2":30.254,"lo1":-89.0895,"lo2":-89.0444,"dy":0.0017,"dx":0.0017,"nx":28,"ny":28,"refTime":"2023-08-07T09:00:00:Z","depth":0,"parameterNumber":3,"parameterNumberName":"V-component_of_WINDS"},"data":[0,0,0,0,0,0,0,0,0,0,0,0,0,0,0,0,0,0,0,0,0,0,0,0,0,0,0,0,0,0,0,0,0,0,0,0,0,0,0,0,0,0,0,0,0,0,0,0,0,0,0,0,0,0,0,0,0,0,1.4956,1.4956,0,1.4956,1.4956,1.4956,1.4906,1.4904,1.4903,1.4902,1.4904,1.4905,1.4907,0,0,0,0,0,0,0,0,0,0,0,0,0,1.4914,1.4915,1.4956,1.4956,1.4956,1.4956,1.4956,1.4956,1.4906,1.4904,1.4903,1.4901,1.4904,1.4905,1.4907,0,0,0,0,0,0,0,0,0,0,0,0,0,1.4925,1.4915,1.4956,1.4931,1.4929,1.4956,1.4956,1.4956,1.4906,1.4904,1.4902,1.4901,1.4903,1.4905,1.4907,1.4959,0,0,1.4913,1.4914,0,0,0,0,0,0,0,0,1.4924,1.4927,1.4935,1.4933,1.493,1.4929,1.4942,1.4957,1.4907,1.4915,1.4902,1.49,1.4914,1.4915,1.492,1.4959,1.4959,1.4913,1.4914,1.4915,1.4916,0,0,0,0,0,0,0,1.4924,1.4926,1.4956,1.4935,1.4932,1.492,1.492,1.4945,1.4926,1.4914,1.491,1.4911,1.4913,1.4918,1.4919,1.4959,1.4913,1.4915,1.4916,1.4917,1.5041,1.5043,0,0,0,0,0,0,1.4926,1.4926,1.4956,1.4956,1.4922,1.4923,1.4922,1.4931,1.4925,1.4923,1.4913,1.4909,1.4915,1.4917,1.4919,1.4979,1.4915,1.4917,1.4918,1.5039,1.5041,1.5043,0,0,0,0,0,0,1.4925,1.4929,1.4956,1.494,1.4943,1.4925,1.4937,1.4933,1.4938,1.4924,1.4921,1.4921,1.4914,1.4916,1.4949,1.4979,1.4918,1.492,1.5036,1.5039,1.5042,1.51,0,0,0,0,0,0,1.4924,1.4929,1.4949,1.4941,1.4944,1.4986,1.4938,1.4934,1.4941,1.4936,1.4932,1.4929,1.4913,1.4947,1.4951,1.498,1.4921,1.5033,1.5038,1.5041,1.5096,1.5105,1.5113,0,0,0,0,0,1.4923,1.4966,1.495,1.4954,1.4968,1.4988,1.499,1.4969,1.4943,1.4963,1.4954,1.4929,1.4974,1.495,1.4955,1.4985,1.5032,1.5036,1.5041,1.5092,1.5103,1.5113,0,0,0,0,0,0,1.4979,1.4965,1.4947,1.4988,1.499,1.4979,1.5004,1.4982,1.4991,1.4986,1.4961,1.496,1.4997,1.4994,1.4968,1.5035,1.4998,1.5004,1.5035,1.5046,1.5055,1.5055,1.4923,0,0,0,0,0,1.4996,1.5013,1.5,1.5038,1.5039,1.5021,1.503,1.5013,1.5014,1.5015,1.5008,1.5011,1.5025,1.5035,1.5048,1.5095,1.5093,1.5118,1.5126,1.5133,1.5139,1.5163,1.5174,1.5059,1.5059,1.5059,0,0,1.5032,1.5026,1.5039,1.5049,1.5048,1.5067,1.5022,1.5044,1.5058,1.5018,1.5049,1.5044,1.5045,1.5084,1.5101,1.5083,1.517,1.5139,1.5145,1.5147,1.5169,1.518,1.519,1.5062,1.5062,1.5061,0,0,1.5107,1.5104,1.5135,1.5135,1.5133,1.5121,1.5128,1.5121,1.5116,1.5145,1.5116,1.5132,1.5157,1.5159,1.5163,1.5236,1.5214,1.5241,1.5287,1.531,1.5319,1.5327,1.5354,1.5363,1.5247,1.5247,1.5247,0,1.5152,1.5178,1.5154,1.5177,1.5183,1.5146,1.5177,1.5178,1.5181,1.5186,1.5165,1.5195,1.5193,1.5232,1.525,1.5255,1.5262,1.5242,1.532,1.5328,1.5335,1.5359,1.5369,1.525,1.525,1.5249,1.5249,0,1.5234,1.5252,1.5278,1.528,1.5288,1.5316,1.5295,1.5306,1.5289,1.5279,1.5309,1.5305,1.5316,1.5323,1.5307,1.536,1.5349,1.5324,1.5287,1.5349,1.5372,1.5381,1.5255,1.5254,1.5253,1.5252,0,0,1.5346,1.5333,1.5343,1.5343,1.5338,1.5352,1.5377,1.5387,1.5397,1.54,1.542,1.5442,1.5419,1.5424,1.5407,1.5428,1.5486,1.54,1.54,1.5417,1.5543,1.5562,1.5574,1.547,1.5472,1.5473,1.5543,0,1.5418,1.546,1.5438,1.5483,1.55,1.5464,1.5486,1.5485,1.5476,1.5489,1.5479,1.5495,1.5463,1.5465,1.5484,1.5475,1.5511,1.5469,1.549,1.5491,1.5491,1.5585,1.5606,1.5673,1.5552,1.5554,1.5555,0,1.5509,1.5514,1.5561,1.5551,1.5557,1.5577,1.5584,1.5596,1.5595,1.5586,1.5591,1.5569,1.5593,1.5556,1.5589,1.5561,1.5568,1.5564,1.5566,1.5568,1.5527,1.559,1.5693,1.5704,1.5568,1.5567,1.5566,0,1.5586,1.5605,1.5635,1.5636,1.5626,1.5641,1.5637,1.5633,1.564,1.5645,1.5649,1.5658,1.5663,1.5671,1.5652,1.5626,1.5687,1.5648,1.5681,1.5682,1.5697,1.5696,1.5803,1.57,1.57,1.57,1.57,0,1.567,1.57,1.5669,1.5688,1.572,1.5694,1.5726,1.5719,1.5716,1.5732,1.5702,1.5718,1.5692,1.5706,1.5691,1.5721,1.5723,1.5717,1.5713,1.572,1.5721,1.5725,1.572,1.5703,1.5702,1.5702,1.5701,0,1.5762,1.5743,1.5773,1.576,1.5757,1.5781,1.577,1.5787,1.5775,1.5796,1.58,1.5781,1.5796,1.5777,1.579,1.578,1.582,1.5809,1.5821,1.5818,1.5852,1.5849,1.5965,1.5979,1.5867,1.5869,1.5869,0,1.5817,1.5839,1.5827,1.5836,1.5834,1.5848,1.5854,1.5829,1.5836,1.5835,1.5852,1.5864,1.5872,1.5896,1.5885,1.5894,1.5883,1.5923,1.5885,1.5891,1.5884,1.5883,1.5885,1.5931,1.5933,1.5934,1.5935,0,1.5917,1.5905,1.5915,1.5921,1.5929,1.5932,1.5934,1.5943,1.5916,1.5926,1.594,1.5946,1.5959,1.5971,1.5977,1.5974,1.595,1.5947,1.5955,1.5963,1.5969,1.5966,1.5843,1.5944,1.5943,1.5943,1.5942,1.5942,1.5992,1.6009,1.6003,1.6015,1.6013,1.6015,1.6029,1.6018,1.6029,1.6036,1.6021,1.6038,1.6035,1.6041,1.604,1.6054,1.6036,1.6048,1.6051,1.6055,1.606,1.5966,1.6055,1.6054,1.6054,1.6054,1.6053,0,1.609,1.6084,1.6095,1.6097,1.6106,1.6081,1.6081,1.609,1.6106,1.6104,1.6112,1.6128,1.6139,1.6127,1.6136,1.6149,1.6138,1.6152,1.6151,1.6151,1.6075,1.6067,1.6161,1.6161,1.6161,1.6161,1.6161,1.6161,1.6142,1.617,1.6158,1.6184,1.6178,1.6194,1.6196,1.6198,1.6196,1.6215,1.6223,1.6215,1.6209,1.6217,1.6226,1.6222,1.6227,1.6245,1.6238,1.6167,1.6157,1.6147,1.6139,1.6246,1.6246,1.6313,1.6313,1.6314]}]]